User: anonymous   Login
Location: Harwich
(41.7160°N, 69.9939°W)
Time: 11:17:36
(UTC+01:00)
Language:

Courier 1B Rocket - Orbit

View from above orbital plane
View from above orbital plane
View from above satellite
View from above satellite

Ground track
Ground track

The orbit data is extracted from the following two-line orbital elements,

1 00059U 60013B   24064.73778700  .00000107  00000-0  24087-4 0  9992
2 00059  28.2473  90.9605 0189133 150.3226 210.8199 13.53059940130064
Epoch (UTC): 04 March 2024 17:42:24
Eccentricity: 0.0189133
inclination: 28.2473°
perigee height: 920 km
apogee height: 1202 km
right ascension of ascending node: 90.9605°
argument of perigee: 150.3226°
revolutions per day: 13.53059940
mean anomaly at epoch: 210.8199°
orbit number at epoch: 13006

The dashed part of the orbit path shows where the satellite is in the earth's shadow,  

DLR